Wind_Speed
10 11 11 11 12 13 13 12 14 15 14 11 11 10 9 9 9 9 9 9 10 10 11 12 12 13 14 15 16 17 18 19 21 22 22 22 22 23 24 24 25 26 26 27
11 11 12 12 13 14 14 15 15 15 12 11 10 10 10 10 10 10 11 11 12 12 13 13 14 15 16 17 18 19 20 21 23 24 24 24 25 25 26 27 27 28 28 29
11 11 11 11 12 13 14 15 15 14 13 11 11 11 11 11 12 12 12 13 13 14 15 16 16 17 18 19 20 21 23 24 25 26 26 27 27 28 28 29 30 30 31 31
13 13 12 11 12 14 14 14 15 14 14 13 13 13 13 13 13 14 15 15 16 17 17 18 19 20 21 22 23 24 26 27 28 28 28 29 30 30 31 32 32 33 34 34
14 14 14 13 14 15 15 15 15 15 15 15 16 15 15 15 16 17 17 18 19 20 20 21 21 23 24 25 26 27 28 29 30 30 31 32 33 33 34 35 36 37 37 38
16 16 17 15 14 16 17 16 16 17 17 17 18 18 17 17 19 19 20 21 21 22 23 23 24 26 27 28 29 30 31 32 33 33 34 35 36 37 38 39 39 40 41 41
18 19 19 17 16 18 19 17 17 18 18 19 20 20 20 20 21 22 22 23 24 25 26 27 28 29 30 31 32 33 34 35 36 37 38 39 40 41 42 43 44 44 45 45
21 22 22 19 19 21 20 19 20 20 21 21 22 22 22 23 24 25 25 26 27 28 29 30 31 32 33 34 35 36 37 38 39 40 41 43 44 45 47 47 48 49 49 50
24 24 23 22 23 23 23 23 23 23 23 24 24 25 25 26 27 28 28 29 30 31 31 32 33 35 36 37 38 40 41 42 43 44 45 47 48 50 51 52 52 53 54 54
27 26 26 25 25 26 26 26 26 26 27 27 27 28 29 29 30 31 31 32 32 33 34 35 37 38 39 41 42 43 44 45 46 48 49 51 53 54 55 55 56 56 57 56
31 30 30 29 29 29 29 29 29 30 30 30 31 31 32 33 33 34 34 35 36 36 37 39 40 41 42 44 45 46 47 49 50 52 54 55 56 56 57 58 58 59 58 58
34 33 33 33 32 32 32 32 32 33 33 33 34 35 35 36 37 37 38 38 39 40 41 42 43 44 46 47 48 49 51 52 54 56 57 58 58 59 59 60 60 60 60 59
37 37 36 36 35 35 35 35 35 36 36 37 37 38 38 39 39 40 40 41 42 42 43 44 45 47 48 50 51 52 54 56 58 59 60 61 61 61 61 61 61 61 60 59
39 39 39 38 38 38 38 39 39 39 40 40 41 41 41 41 41 42 42 43 44 45 46 47 48 50 51 53 54 56 58 60 61 62 63 63 64 64 64 64 63 62 60 58
41 41 41 40 40 40 40 40 41 41 42 43 43 43 43 43 43 44 45 45 46 47 48 50 52 53 55 56 58 59 60 62 63 64 65 65 66 66 66 65 64 62 59 56
43 43 42 42 42 42 42 42 43 43 44 44 44 44 45 45 45 46 47 48 49 50 51 53 55 56 57 59 60 61 62 64 65 66 66 66 66 66 65 65 63 61 58 55
44 43 43 43 43 44 44 44 44 44 44 45 45 46 46 47 47 48 49 50 52 53 54 56 57 58 60 61 62 63 64 65 66 67 67 67 67 66 65 64 62 60 57 54
45 45 45 45 45 45 45 45 45 45 45 46 46 47 48 48 49 50 51 53 54 55 56 58 59 60 61 63 64 65 66 67 68 68 68 67 66 65 65 63 62 59 56 52
45 45 45 45 45 45 45 45 45 46 46 47 48 48 49 50 51 52 54 55 56 57 58 60 61 62 63 64 66 67 68 68 69 68 67 67 66 66 64 62 60 58 54 50
45 45 45 45 46 46 46 46 47 47 48 49 50 50 51 52 53 54 56 57 58 59 60 61 62 63 65 66 67 68 69 69 69 68 67 66 65 64 62 60 57 54 51 48
45 45 46 46 46 47 47 48 49 50 50 51 51 52 53 54 55 56 58 58 59 61 62 63 64 65 66 67 68 68 69 68 68 67 66 65 64 62 60 57 54 52 50 47
46 46 47 48 48 48 49 49 50 51 51 52 53 54 55 56 57 58 59 60 62 63 64 64 65 66 67 67 68 68 68 67 67 66 65 63 61 59 57 54 51 49 47 44
47 48 48 48 49 49 50 51 51 52 53 54 55 56 57 58 59 60 61 62 63 64 65 65 66 66 66 67 67 67 66 65 64 64 62 60 58 56 53 51 49 47 44 41
49 49 50 50 51 52 52 53 54 54 55 56 57 58 59 60 61 62 63 63 63 64 64 64 65 65 65 65 65 65 64 63 62 61 59 57 54 52 50 47 45 43 41 39
52 52 52 53 53 54 54 55 55 56 57 58 58 60 61 61 62 62 62 62 63 63 63 63 63 63 64 64 64 63 63 61 60 58 56 54 51 49 47 45 43 41 40 38
53 54 54 55 55 56 56 57 57 58 59 60 60 60 61 61 61 61 61 62 62 63 63 62 62 62 62 62 62 61 60 58 57 55 53 50 48 46 44 43 42 41 39 38
54 55 55 56 56 57 58 59 59 60 60 60 61 60 60 60 61 61 61 62 62 62 61 61 61 61 61 60 59 58 57 55 53 51 50 48 46 44 43 42 41 39 38 37
Wind_Direction
205 210 216 219 219 216 215 216 222 233 244 245 248 254 261 266 273 278 284 291 297 301 304 307 310 311 313 314 316 318 320 322 322 322 322 322 321 320 320 320 320 319 319 318
220 226 228 228 226 226 226 229 234 243 246 251 250 256 264 269 274 279 286 291 294 298 302 304 306 308 310 312 314 315 317 319 320 320 320 320 319 318 317 317 317 316 316 315
224 233 234 234 232 231 232 236 241 247 250 255 260 261 266 272 278 282 286 290 293 297 300 302 304 306 308 310 311 312 314 316 316 317 317 317 316 315 315 314 314 314 313 312
225 232 238 234 236 240 241 243 246 250 255 261 265 266 270 275 279 282 285 288 291 295 298 300 301 303 304 307 308 310 311 312 313 313 313 313 313 313 312 312 312 311 311 309
231 235 242 241 242 246 248 249 251 255 259 263 266 269 273 277 279 282 286 289 292 294 296 297 299 301 303 305 306 307 308 309 309 309 310 310 310 310 310 309 309 309 308 307
240 242 246 247 247 251 253 253 254 257 261 265 269 272 275 276 279 283 286 289 291 293 294 295 297 299 300 303 304 305 307 307 307 307 307 308 308 308 308 307 307 306 306 305
247 250 252 252 251 254 256 257 257 260 263 267 270 274 277 278 280 283 286 288 290 291 293 294 296 298 300 301 303 304 305 305 305 305 306 307 307 307 307 306 305 304 303 303
251 254 256 258 257 258 260 262 262 264 266 269 272 276 278 279 281 283 286 288 290 291 292 294 296 297 299 300 301 302 303 304 304 305 305 306 306 306 306 305 304 303 302 301
254 257 260 260 260 262 263 264 265 267 268 271 273 275 277 279 281 284 286 288 290 291 292 294 295 297 298 299 300 301 302 303 304 304 305 306 306 306 305 304 303 302 301 300
256 258 259 260 262 263 265 266 267 268 270 272 274 276 278 280 281 283 286 287 289 290 292 293 294 296 297 299 300 301 302 303 304 305 305 306 306 306 305 304 303 302 301 300
256 257 259 260 262 264 265 267 268 270 271 273 274 276 277 279 281 283 285 286 288 290 292 293 294 296 297 299 300 301 302 304 305 305 306 306 306 306 306 305 304 303 301 299
255 256 259 262 263 264 266 267 269 270 272 274 275 276 278 281 282 284 285 287 289 291 292 293 294 296 298 299 300 302 303 304 305 306 306 306 306 305 306 306 305 303 301 299
258 259 261 262 264 265 266 268 270 271 272 274 276 277 279 281 282 284 286 287 289 291 292 293 295 296 298 299 301 302 303 304 305 306 306 306 305 305 305 305 305 303 300 297
259 261 262 263 265 266 267 268 270 272 273 275 276 277 279 280 282 284 285 287 289 291 292 294 295 297 298 300 301 302 304 305 305 306 306 306 305 305 305 305 305 303 300 298
260 261 263 265 266 267 268 269 271 272 273 275 275 276 278 279 281 283 285 287 289 291 292 294 296 298 299 300 302 303 304 305 306 306 307 306 306 305 305 305 305 304 301 298
260 262 264 265 266 267 269 270 271 272 273 273 274 276 278 280 282 284 286 288 289 291 293 295 297 298 299 301 302 303 304 305 306 307 307 307 306 306 305 306 305 304 302 299
261 263 264 265 266 267 269 270 271 272 272 273 274 276 278 280 283 285 286 288 290 292 294 296 297 298 300 301 302 303 304 305 306 306 307 307 307 307 306 306 305 304 302 299
262 263 264 266 267 268 270 270 271 272 273 274 276 277 280 282 284 285 287 289 291 293 294 296 297 299 300 301 302 303 304 305 306 306 307 307 307 307 307 306 304 303 301 297
261 263 264 266 267 268 269 270 271 272 274 275 277 279 281 283 285 287 288 290 292 293 295 296 297 299 300 301 302 303 304 305 306 306 306 306 307 307 307 305 304 303 300 296
262 263 265 266 267 268 269 270 271 273 274 276 278 280 282 284 286 287 289 291 292 293 295 296 297 299 300 301 302 303 304 305 305 306 306 306 307 307 306 305 303 302 299 296
263 264 265 267 268 269 270 271 273 274 276 277 279 281 283 284 286 288 289 291 292 293 295 296 297 298 299 301 302 303 304 305 305 305 305 306 306 306 305 304 303 301 299 296
263 265 266 267 269 270 271 272 274 276 277 279 281 282 284 285 287 288 290 291 292 294 295 296 297 298 300 301 302 303 304 304 304 305 305 305 305 305 304 303 302 301 299 296
264 266 267 268 270 271 272 274 275 277 278 280 282 283 284 286 287 289 290 291 293 294 295 296 297 298 299 301 302 303 304 304 304 305 305 305 305 305 304 302 301 300 299 296
266 267 268 270 271 272 274 275 277 278 280 282 283 284 286 287 288 289 290 292 293 294 295 296 297 298 299 300 302 302 303 304 304 304 304 304 304 304 304 303 301 300 298 295
267 268 270 271 273 274 276 277 279 280 282 283 284 285 286 287 288 289 290 292 292 293 295 296 297 298 299 300 301 302 303 303 303 304 304 303 303 303 302 301 300 299 297 295
269 270 271 273 275 276 278 279 280 282 283 284 285 286 286 287 289 289 290 291 293 294 295 296 297 298 299 300 301 302 302 303 303 303 303 302 302 302 300 299 299 298 296 294
270 271 273 274 276 277 278 280 281 282 283 284 284 286 286 287 288 289 290 291 293 294 294 295 296 297 298 299 300 301 302 303 303 303 303 302 301 301 300 299 300 300 297 293
Height
5835 5837 5839 5841 5843 5845 5847 5848 5849 5849 5849 5851 5852 5852 5853 5853 5853 5853 5853 5853 5852 5851 5850 5849 5848 5847 5846 5845 5843 5841 5840 5837 5835 5832 5830 5828 5826 5823 5821 5819 5817 5815 5812 5810
5834 5836 5838 5839 5841 5842 5844 5845 5846 5846 5848 5848 5849 5849 5850 5850 5850 5850 5850 5850 5849 5848 5847 5846 5845 5844 5842 5841 5839 5837 5835 5833 5830 5827 5825 5822 5820 5818 5815 5813 5811 5809 5806 5804
5833 5834 5836 5838 5839 5840 5841 5842 5844 5844 5846 5845 5846 5847 5847 5847 5847 5847 5847 5846 5845 5844 5843 5842 5841 5839 5838 5836 5834 5832 5830 5827 5825 5822 5819 5816 5814 5811 5809 5807 5804 5802 5799 5796
5831 5833 5834 5837 5836 5837 5839 5840 5841 5841 5842 5843 5843 5843 5844 5844 5844 5844 5843 5842 5841 5840 5839 5838 5836 5835 5833 5831 5829 5827 5824 5821 5818 5816 5813 5810 5807 5804 5802 5799 5797 5794 5791 5788
5828 5829 5831 5833 5833 5834 5835 5837 5837 5838 5838 5839 5839 5839 5840 5840 5839 5839 5838 5838 5837 5835 5834 5832 5831 5829 5827 5825 5823 5820 5818 5815 5812 5809 5806 5803 5799 5796 5793 5790 5788 5784 5781 5778
5825 5825 5827 5830 5830 5830 5832 5833 5834 5834 5834 5834 5834 5835 5836 5835 5834 5834 5833 5832 5831 5830 5828 5827 5825 5823 5821 5818 5816 5813 5810 5807 5804 5800 5797 5794 5791 5787 5784 5780 5777 5774 5770 5766
5820 5821 5822 5825 5826 5826 5828 5830 5830 5829 5829 5829 5829 5830 5830 5829 5829 5828 5827 5826 5825 5823 5822 5820 5818 5816 5814 5811 5808 5805 5802 5798 5795 5791 5788 5784 5780 5776 5772 5769 5765 5761 5758 5754
5815 5816 5819 5820 5821 5821 5823 5823 5823 5823 5824 5824 5824 5823 5823 5823 5822 5822 5821 5820 5818 5816 5814 5812 5810 5808 5805 5803 5800 5796 5793 5789 5785 5781 5777 5773 5768 5764 5759 5755 5751 5747 5743 5739
5810 5812 5813 5814 5814 5815 5816 5817 5817 5817 5818 5817 5817 5817 5817 5816 5815 5814 5813 5812 5810 5808 5806 5804 5801 5799 5796 5793 5790 5786 5782 5778 5774 5770 5765 5760 5755 5750 5745 5740 5735 5730 5726 5721
5803 5804 5805 5807 5808 5809 5809 5809 5810 5810 5810 5810 5810 5810 5809 5809 5808 5806 5805 5803 5802 5800 5797 5795 5792 5789 5786 5783 5779 5775 5771 5766 5762 5757 5752 5747 5741 5735 5729 5723 5718 5712 5707 5702
5795 5797 5797 5799 5800 5801 5802 5802 5802 5803 5802 5802 5802 5801 5801 5800 5799 5797 5796 5794 5792 5790 5787 5784 5781 5778 5775 5771 5767 5763 5758 5754 5748 5743 5738 5732 5726 5719 5713 5707 5699 5693 5688 5682
5786 5788 5790 5791 5792 5793 5793 5794 5794 5794 5794 5793 5793 5792 5791 5790 5789 5787 5785 5783 5781 5779 5776 5773 5770 5766 5762 5758 5754 5750 5745 5739 5734 5728 5722 5716 5710 5704 5697 5690 5683 5676 5669 5663
5777 5779 5780 5781 5782 5783 5784 5784 5784 5784 5784 5783 5783 5782 5781 5779 5778 5776 5774 5772 5770 5767 5764 5761 5758 5754 5750 5745 5740 5735 5730 5724 5718 5712 5705 5699 5692 5686 5680 5674 5666 5658 5651 5645
5766 5768 5769 5771 5772 5772 5773 5773 5773 5773 5773 5772 5771 5770 5769 5768 5766 5765 5762 5760 5757 5755 5751 5748 5744 5740 5736 5731 5726 5720 5714 5708 5701 5694 5688 5681 5674 5667 5660 5653 5648 5641 5634 5627
5756 5757 5758 5759 5760 5761 5761 5761 5761 5761 5761 5760 5759 5758 5757 5756 5754 5752 5750 5747 5745 5742 5738 5734 5730 5726 5721 5715 5710 5704 5698 5691 5684 5677 5670 5663 5655 5648 5641 5634 5627 5621 5615 5609
5744 5745 5747 5747 5748 5748 5749 5749 5749 5749 5748 5747 5747 5746 5744 5743 5741 5739 5737 5734 5731 5728 5724 5720 5715 5710 5705 5699 5694 5688 5681 5674 5667 5660 5652 5645 5637 5630 5622 5615 5608 5601 5596 5590
5732 5733 5734 5735 5735 5736 5736 5736 5736 5736 5735 5735 5734 5733 5731 5730 5728 5726 5723 5720 5716 5713 5709 5705 5700 5694 5689 5683 5677 5671 5664 5657 5650 5642 5634 5627 5619 5611 5604 5597 5590 5584 5578 5572
5719 5720 5721 5722 5722 5723 5723 5723 5723 5723 5722 5721 5720 5719 5718 5716 5714 5711 5708 5705 5701 5698 5693 5688 5683 5678 5672 5666 5660 5653 5646 5639 5632 5624 5617 5609 5601 5594 5586 5579 5572 5566 5561 5556
5705 5707 5708 5709 5709 5709 5709 5710 5709 5709 5708 5707 5706 5705 5703 5701 5699 5696 5693 5690 5686 5682 5677 5672 5667 5661 5655 5649 5642 5635 5628 5621 5614 5607 5599 5591 5584 5577 5569 5562 5555 5549 5543 5539
5692 5693 5694 5695 5695 5696 5696 5696 5696 5695 5694 5693 5692 5690 5689 5686 5683 5680 5677 5674 5669 5665 5660 5655 5650 5644 5638 5631 5624 5617 5610 5603 5596 5588 5581 5574 5566 5559 5552 5545 5538 5533 5528 5523
5679 5680 5681 5681 5682 5682 5682 5682 5681 5681 5680 5678 5677 5675 5673 5670 5667 5664 5661 5657 5653 5648 5643 5638 5632 5626 5620 5613 5606 5600 5592 5585 5578 5570 5563 5556 5549 5542 5535 5529 5523 5517 5513 5509
5665 5666 5667 5667 5668 5668 5667 5667 5666 5665 5664 5663 5661 5659 5657 5654 5651 5647 5644 5640 5635 5630 5625 5620 5614 5608 5601 5595 5588 5582 5575 5567 5560 5553 5546 5539 5532 5526 5520 5514 5508 5503 5498 5494
5651 5651 5652 5652 5652 5652 5652 5651 5650 5649 5648 5647 5645 5642 5639 5637 5633 5630 5627 5622 5617 5612 5607 5602 5596 5589 5583 5576 5570 5564 5557 5550 5543 5536 5530 5523 5516 5510 5504 5499 5494 5489 5485 5481
5635 5636 5636 5636 5636 5636 5636 5635 5634 5633 5631 5629 5627 5625 5622 5619 5615 5611 5607 5603 5599 5594 5588 5583 5577 5571 5565 5559 5553 5546 5540 5533 5527 5520 5513 5507 5501 5495 5490 5485 5480 5476 5472 5469
5619 5620 5620 5620 5620 5620 5619 5618 5617 5615 5614 5612 5609 5606 5603 5600 5597 5593 5589 5585 5580 5575 5570 5565 5560 5554 5548 5542 5536 5529 5523 5517 5510 5504 5498 5492 5487 5482 5477 5472 5467 5464 5460 5457
5603 5603 5603 5603 5603 5602 5601 5600 5599 5597 5595 5593 5591 5588 5585 5581 5578 5574 5570 5566 5562 5557 5552 5547 5542 5536 5531 5525 5519 5513 5507 5501 5495 5489 5483 5478 5473 5468 5463 5459 5455 5451 5448 5444
5586 5586 5586 5586 5585 5584 5583 5582 5581 5579 5577 5574 5572 5570 5566 5563 5559 5555 5552 5547 5543 5539 5534 5529 5524 5519 5514 5508 5503 5497 5491 5485 5480 5474 5469 5464 5459 5455 5451 5447 5443 5439 5435 5432